Location: Centerville
(32.8776°N, 96.6203°W)
Time: 00:44:44
(UTC+00:00)

Cosmos 2237 Rocket - Pass Details

Date: 17 June 2021
Orbit: 835 x 850 km, 71.0° (Epoch: 27 July)

Event Time Altitude Azimuth Distance (km) Brightness Sun altitude
Exits shadow 04:29:10 15° 66° (ENE) 2,139 4.2 -27.1°
Drops below altitude 10° 04:30:26 10° 55° (NE) 2,447 4.6 -27.2°
Sets 04:33:28 0° 39° (NE) 3,385 5.6 -27.5°
